Weather in Poselok 14 km dorogi Kem-Kalevala

Russia / Republic of Karelia     64°55′16″N   34°21′41″E
temp.,
°C
wind,
m/s
gust,
m/s
humid.,
%
clouds,
%
prec.,
mm/h
press.,
hPa
HPBL,
m
18 september, sat
sat1800:00+6ne2286100 0.3 102946
03:00+6ne2386100 0.6 103054
06:00+5nne2487100 0.2 103198
09:00+6ne2481100 0.3 1031390
12:00+7ene2268100 0.1 1032830
15:00+8ene336188 0.1 10321052
18:00+6e237250 0.0 103270
21:00+3e118362 0.0 103211
19 september, sun
sun1900:00+2e008374 0.0 103210
03:00+4w117799 0.0 103311
06:00+4wnw1174100 0.0 103310
09:00+6n116688 0.0 1034147
12:00+9e125051 0.0 10341293
15:00+9ene215186 0.0 10341267
18:00+7e346828 0.0 1034196
21:00+3e12855 0.0 103410
20 september, mon
mon2000:00+3ene01850 0.0 103610
03:00+2nnw11850 0.0 103610
06:00+2n22875 0.0 103612
09:00+6nne12735 0.0 1037166
12:00+9ene225922 0.0 10361016
15:00+9ene335825 0.0 10351101
18:00+6e23752 0.0 103453
21:00+3ese11885 0.0 103410
21 september, tue
tue2100:00+2nne11907 0.0 103310
03:00+2ne11905 0.0 103210
06:00+2ene11895 0.0 103110
09:00+4s237454 0.0 1030189
12:00+7se236517 0.0 1029857
15:00+8se335244 0.0 10281053
18:00+5ese357287 0.0 1027130
21:00+2se228599 0.0 102715
22 september, wed
wed2200:00+2sse118738 0.0 102710
03:00+1s11905 0.0 102510
06:00+1s22890 0.0 102510
09:00+4s23745 0.0 1024164
12:00+8s356091 0.0 1023770
15:00+9s345462 0.0 1022931
18:00+6sse337553 0.0 102061
21:00+4sse348837 0.0 101962